{"data":{"norad_id":60070,"epoch":"2026-09-21T09:10:26.862240Z","epoch_age_seconds":101316,"freshness":"FRESH","line1":"1 60070U 24113M   26264.38225535 -.00000618  00000+0 -24826-6 0  9991","line2":"2 60070  53.1590 306.7576 0001037  99.5149 260.5986 15.69702229130700","mean_motion":15.69702229,"eccentricity":0.0001037,"inclination_deg":53.159,"raan_deg":306.7576,"arg_perigee_deg":99.5149,"mean_anomaly_deg":260.5986,"bstar":-2.4826e-7,"rev_number":13070,"period_min":91.737144370201,"perigee_km":359.05026936197,"apogee_km":360.44770691591,"semimajor_km":6737.8859881389,"source":"CELESTRAK","updated_at":"2026-09-22T09:00:49.148564Z"}}